Home > Weather > Wiehl > Past weeks

Flag for Germany Weather for the Past 2 Weeks in Wiehl, North Rhine-Westphalia, Germany

Now
34 °F

Fog.


Feels Like: 34 °F
Forecast: 40 / 64 °F
Wind: 2 mph from East

Location: Koeln / Bonn

Current Time: May 4, 2016 at 6:28:24 AM

Latest Report: May 4, 2016 at 5:50 AM


Visibility: N/A

Pressure: 30.39 "Hg

Humidity: 93%

Dew Point: 32 °F

Location of WiehlLocation

Historic Weather in Wiehl — Graph

°F

Wiehl Temperature Yesterday

Maximum temperature yesterday: 59 °F (at 2:50 PM)
Minimum temperature yesterday: 46 °F (at 11:20 PM)
Average temperature yesterday: 53 °F

High & Low Weather Summary for the Past Weeks

 TemperatureHumidityPressure
High70 °F (Apr 21, 3:50 PM)100% (Apr 24, 11:50 PM)30.45 "Hg (Apr 24, 11:50 PM)
Low30 °F (Apr 20, 6:50 AM)23% (Apr 21, 4:50 PM)29.53 "Hg (Apr 26, 10:50 AM)
Average47 °F69%30.04 "Hg
* Reported Apr 19 4:20 AM — May 4 4:50 AM, Wiehl, Weather by CustomWeather, © 2016

Note: Actual official high and low records may vary slightly from our data, if they occured in-between our weather recording intervals... More about our weather records

Advertising

Wiehl Weather History for the Previous 24 Hours

Scroll right to see more
 ConditionsComfort  
Time TempWeatherWind HumidityBarometerVisibility
4:50 AM
Wed, May 4
36 °FFog.2 mph93%30.36 "HgN/A
4:20 AM37 °FFog.2 mph93%30.36 "HgN/A
3:50 AM37 °FClear.2 mph93%30.36 "Hg10 mi
3:20 AM37 °FClear.2 mph93%30.36 "Hg10 mi
2:50 AM39 °FClear.3 mph87%30.36 "Hg10 mi
2:20 AM36 °FClear.2 mph87%30.36 "Hg10 mi
1:50 AM41 °FClear.2 mph81%30.36 "Hg10 mi
12:50 AM41 °FClear.1 mph81%30.36 "Hg10 mi
12:20 AM43 °FPassing clouds.3 mph76%30.36 "HgN/A
11:50 PM
Tue, May 3
46 °FClear.6 mph66%30.33 "Hg10 mi
11:20 PM46 °FClear.5 mph66%30.33 "Hg10 mi
10:20 PM48 °FClear.5 mph62%30.33 "Hg10 mi
9:50 PM48 °FPassing clouds.6 mph62%30.30 "HgN/A
9:20 PM50 °FSunny.8 mph54%30.30 "Hg10 mi
8:50 PM52 °FSunny.10 mph50%30.27 "Hg10 mi
8:20 PM54 °FSunny.9 mph47%30.27 "Hg10 mi
7:50 PM54 °FSunny.13 mph51%30.24 "Hg10 mi
7:20 PM55 °FSunny.16 mph44%30.24 "Hg10 mi
6:50 PM57 °FPassing clouds.16 mph41%30.24 "HgN/A
6:20 PM59 °FPassing clouds.16 mph39%30.21 "HgN/A
5:50 PM59 °FSunny.18 mph39%30.21 "Hg10 mi
5:20 PM59 °FSunny.18 mph36%30.21 "Hg10 mi
4:50 PM59 °FPassing clouds.21 mph39%30.21 "HgN/A
4:20 PM59 °FPassing clouds.17 mph42%30.21 "HgN/A
3:50 PM59 °FPassing clouds.20 mph45%30.21 "HgN/A
3:20 PM57 °FSprinkles. Passing clouds.16 mph51%30.21 "HgN/A
2:50 PM59 °FScattered showers. Passing clouds.18 mph45%30.18 "HgN/A
2:20 PM57 °FScattered showers. Passing clouds.20 mph48%30.18 "HgN/A
1:20 PM55 °FSprinkles. Scattered clouds.12 mph63%30.18 "HgN/A
12:50 PM52 °FSprinkles. Broken clouds.10 mph67%30.18 "HgN/A
12:20 PM52 °FRain showers. Broken clouds.28 mph67%30.18 "HgN/A
11:50 AM54 °FSprinkles. Broken clouds.12 mph67%30.15 "HgN/A
11:20 AM52 °FBroken clouds.10 mph72%30.15 "HgN/A
10:50 AM52 °FPartly sunny.10 mph77%30.15 "HgN/A
10:20 AM54 °FPartly sunny.10 mph77%30.15 "HgN/A
9:50 AM50 °FPartly sunny.9 mph82%30.15 "HgN/A
9:20 AM50 °FPartly sunny.10 mph82%30.15 "HgN/A
8:50 AM48 °FPartly sunny.13 mph94%30.12 "HgN/A
8:20 AM48 °FLight rain. Partly sunny.14 mph94%30.12 "HgN/A
7:20 AM50 °FRain. Partly sunny.8 mph94%30.09 "Hg6 mi
6:50 AM48 °FLight rain. Passing clouds.2 mph94%30.07 "HgN/A
6:20 AM50 °FLight rain. Passing clouds.2 mph82%30.07 "HgN/A
Weather by CustomWeather, © 2016

See weather overviewHow to use our weather pages